Dania, FL

2:14 PM EDT on September 27, 2016 (GMT -0400)
Fort Lauderdale-Hollywood International

Weather History for KFLL - June, 2013

Change the Weather History Date:

Sunday, June 30, 2013

  Actual Average Record
Temperature  
Mean Temperature 83 °F 84 °F  
Max Temperature 89 °F 89 °F 96 °F (2000)
Min Temperature 77 °F 78 °F 68 °F (1937)
Degree Days  
Heating Degree Days 0 0  
Month to date heating degree days 0 0  
Since 1 June heating degree days 0 0  
Since 1 July heating degree days 85 112  
Cooling Degree Days 18 19  
Month to date cooling degree days 544 543  
Year to date cooling degree days 1940 1961  
Since 1 June cooling degree days 544 543  
Growing Degree Days 33 (Base 50)    
Moisture  
Dew Point 73 °F    
Average Humidity 74    
Maximum Humidity 91    
Minimum Humidity 56    
Precipitation  
Precipitation 0.05 in 0.36 in 3.19 in (1966)
Month to date precipitation 14.72 10.16  
Year to date precipitation 39.51 27.65  
Snow  
Snow 0.00 in - - ()
Month to date snowfall 0.0  
Since 1 June snowfall 0.0  
Since 1 July snowfall 0.0  
Snow Depth 0.00 in    
Sea Level Pressure  
Sea Level Pressure 29.90 in    
Wind  
Wind Speed 11 mph (SSW)    
Max Wind Speed 23 mph    
Max Gust Speed 29 mph    
Visibility 10 miles    
Events Rain    
T = Trace of Precipitation, MM = Missing Value Source: NWS Daily Summary

Daily Weather History Graph

Daily Weather History Graph

Search for Another Location

Airport or City:

Trip Planner

Search our weather history database for the weather conditions in past years. The results will help you decide how hot, cold, wet, or windy it might be!

Date:

Astronomy

Jun. 30, 2013 Rise Set
Actual Time 6:31 AM EDT 8:16 PM EDT
Civil Twilight 6:05 AM EDT 8:42 PM EDT
Nautical Twilight 5:34 AM EDT 9:14 PM EDT
Astronomical Twilight 5:01 AM EDT 9:46 PM EDT
Moon 1:01 AM EDT (6/30) 1:54 PM EDT (6/30)
Length of Visible Light 14h 36m
Length of Day
13h 44m
Last Quarter, 45% of the Moon is Illuminated
Jun 30
Last Quarter
Jul 8
New
Jul 15
First Quarter
Jul 22
Full
Jul 29
Last Quarter

Hourly Weather History & Observations

Time (EDT) Temp. Heat Index Dew Point Humidity Pressure Visibility Wind Dir Wind Speed Gust Speed Precip Events Conditions
12:53 AM 80.1 °F 84.2 °F 73.0 °F 79% 29.90 in 10.0 mi South 5.8 mph - N/A   Partly Cloudy
1:53 AM 79.0 °F - 73.9 °F 84% 29.88 in 10.0 mi SSW 4.6 mph - N/A   Partly Cloudy
2:53 AM 79.0 °F - 73.9 °F 84% 29.88 in 10.0 mi SSW 5.8 mph - N/A   Partly Cloudy
3:53 AM 79.0 °F - 73.0 °F 82% 29.86 in 10.0 mi SW 4.6 mph - N/A   Partly Cloudy
4:53 AM 78.1 °F - 73.0 °F 84% 29.87 in 10.0 mi SW 4.6 mph - N/A   Partly Cloudy
5:53 AM 78.1 °F - 73.9 °F 87% 29.88 in 10.0 mi SSW 5.8 mph - N/A   Partly Cloudy
6:53 AM 79.0 °F - 73.9 °F 84% 29.88 in 10.0 mi SSW 5.8 mph - N/A   Partly Cloudy
7:53 AM 81.0 °F 86.2 °F 73.9 °F 79% 29.89 in 10.0 mi SW 6.9 mph - N/A   Partly Cloudy
8:53 AM 82.9 °F 88.8 °F 73.0 °F 72% 29.91 in 10.0 mi SSW 8.1 mph 17.3 mph N/A   Partly Cloudy
9:53 AM 84.0 °F 89.6 °F 72.0 °F 67% 29.91 in 10.0 mi South 10.4 mph - N/A   Scattered Clouds
10:53 AM 82.9 °F 89.4 °F 73.9 °F 74% 29.91 in 6.0 mi South 10.4 mph - 0.00 in Rain Rain
11:53 AM 87.1 °F 94.5 °F 73.0 °F 63% 29.91 in 10.0 mi South 12.7 mph - 0.00 in   Mostly Cloudy
12:53 PM 88.0 °F 93.8 °F 71.1 °F 57% 29.91 in 10.0 mi South 19.6 mph 24.2 mph N/A   Scattered Clouds
1:53 PM 89.1 °F 95.0 °F 71.1 °F 55% 29.89 in 10.0 mi South 20.7 mph 26.5 mph N/A   Scattered Clouds
2:53 PM 88.0 °F 95.6 °F 73.0 °F 61% 29.88 in 10.0 mi South 17.3 mph - N/A   Scattered Clouds
3:53 PM 86.0 °F 91.5 °F 71.1 °F 61% 29.87 in 10.0 mi South 19.6 mph 25.3 mph N/A   Scattered Clouds
4:53 PM 87.1 °F 93.6 °F 72.0 °F 61% 29.88 in 10.0 mi South 16.1 mph 25.3 mph N/A   Scattered Clouds
5:53 PM 86.0 °F 93.0 °F 73.0 °F 65% 29.88 in 10.0 mi South 18.4 mph 24.2 mph N/A   Scattered Clouds
6:53 PM 84.9 °F 91.4 °F 73.0 °F 67% 29.89 in 10.0 mi South 16.1 mph 20.7 mph N/A   Partly Cloudy
7:53 PM 82.0 °F 87.9 °F 73.9 °F 76% 29.92 in 10.0 mi WSW 13.8 mph 19.6 mph 0.00 in   Overcast
8:27 PM 77.0 °F - 71.6 °F 83% 29.92 in 6.0 mi SSW 9.2 mph - 0.05 in Rain Light Rain
8:53 PM 78.1 °F - 73.9 °F 87% 29.94 in 10.0 mi South 9.2 mph - 0.05 in   Mostly Cloudy
9:53 PM 78.1 °F - 75.0 °F 90% 29.94 in 10.0 mi SSW 3.5 mph - N/A   Mostly Cloudy
10:53 PM 80.1 °F 85.1 °F 75.0 °F 85% 29.95 in 10.0 mi SSW 8.1 mph - N/A   Scattered Clouds
11:53 PM 78.8 °F - 75.2 °F 89% 29.96 in 10.0 mi South 4.6 mph - N/A   Partly Cloudy